This is the latest recevied weather packets stored in our database for station/object N5JXS. If no packets are shown the sender has not sent any weather packets the latest 10 day(s).
| Time | Temp. | Humidity | Pressure | Rain* | Wind** | Luminosity | Snow |
|---|---|---|---|---|---|---|---|
| 1788016108 | 21.11° C | 43% | 1027.2 hPa | 0 mm | - | 145 W/m² | - |
| 1788015807 | 21.11° C | 43% | 1027.3 hPa | 0 mm | - | 138 W/m² | - |
| 1788015502 | 20.56° C | 44% | 1027.6 hPa | 0 mm | - | 128 W/m² | - |
| 1788015197 | 20.56° C | 44% | 1027.6 hPa | 0 mm | - | 117 W/m² | - |
| 1788014895 | 20.56° C | 43% | 1028 hPa | 0 mm | - | 103 W/m² | - |
| 1788014590 | 20.56° C | 43% | 1027.8 hPa | 0 mm | - | 93 W/m² | - |
| 1788014286 | 20° C | 44% | 1027.8 hPa | 0 mm | - | 83 W/m² | - |
| 1788013981 | 20° C | 45% | 1027.8 hPa | 0 mm | - | 75 W/m² | - |
| 1788013675 | 19.44° C | 54% | 1027.8 hPa | 0 mm | - | 70 W/m² | - |
| 1788013370 | 19.44° C | 58% | 1027.6 hPa | 0 mm | - | 66 W/m² | - |
| 1788013069 | 19.44° C | 56% | 1027.7 hPa | 0 mm | - | 63 W/m² | - |
| 1788012769 | 19.44° C | 53% | 1027.6 hPa | 0 mm | - | 64 W/m² | - |
| 1788012464 | 19.44° C | 49% | 1027.6 hPa | 0 mm | - | 66 W/m² | - |
| 1788012163 | 19.44° C | 47% | 1027.6 hPa | 0 mm | - | 69 W/m² | - |
| 1788011863 | 19.44° C | 47% | 1027.5 hPa | 0 mm | - | 68 W/m² | - |
| 1788011561 | 19.44° C | 47% | 1027.8 hPa | 0 mm | - | 64 W/m² | - |
| 1788011257 | 18.89° C | 47% | 1027.5 hPa | 0 mm | - | 58 W/m² | - |
| 1788010956 | 18.33° C | 50% | 1027.7 hPa | 0 mm | - | 54 W/m² | - |
| 1788010651 | 18.33° C | 50% | 1027.6 hPa | 0 mm | - | 49 W/m² | - |
| 1788010350 | 18.33° C | 50% | 1027.7 hPa | 0 mm | - | 37 W/m² | - |
| 1788010049 | 18.33° C | 49% | 1028 hPa | 0 mm | - | 36 W/m² | - |
| 1788009745 | 18.33° C | 49% | 1027.7 hPa | 0 mm | - | 36 W/m² | - |
| 1788009442 | 18.89° C | 47% | 1027.7 hPa | 0 mm | - | 33 W/m² | - |
| 1788009144 | 18.89° C | 46% | 1027.6 hPa | 0 mm | - | 31 W/m² | - |
| 1788008833 | 18.33° C | 45% | 1027.5 hPa | 0 mm | - | 28 W/m² | - |
* Rain latest hour (hover to see other rain measurements)
** Current wind speed in m/s (hover to see current wind gust speed)